Regional Weather Roundup
Issued by NWS

Home | Current Version | Previous Version | Graphics & Text | Print | Product List | Glossary On
Versions: 1 2 3 4 5 6 7 8 9 10 11 12 13 14 15 16 17 18 19 20 21 22 23 24 25 26 27 28 29 30 31 32 33 34 35 36 37 38 39 40 41 42 43 44 45 46 47 48 49 50
000
ASUS43 KDMX 171807
RWRIA

WEATHER ROUNDUP FOR IOWA
NATIONAL WEATHER SERVICE DES MOINES IA
100 PM CDT FRI APR 17 2015

NOTE: "FAIR" INDICATES FEW OR NO CLOUDS BELOW 12,000 FEET WITH NO
SIGNIFICANT WEATHER AND/OR OBSTRUCTIONS TO VISIBILITY.

* - THESE STATIONS ARE NOT NWS STATIONS...THUS NOT UNDER NWS
QUALITY CONTROL.  THEY ALSO DO NOT REPORT WEATHER SUCH
AS PRECIPITATION OR FOG.

IAZ001>003-012>014-020>022-031>034-043>046-171900-
   NORTHWEST IOWA

CITY           SKY/WX    TMP DP  RH WIND       PRES   REMARKS
CARROLL *      MOSUNNY   73  46  38 CALM      30.07F
CHEROKEE *     SUNNY     74  47  38 E5        30.08F
DENISON *      MOSUNNY   73  52  46 E8G16     30.06F
LE MARS *      CLOUDY    73  46  38 NE6       30.09F
ORANGE CITY *  SUNNY     72  45  37 E6        30.09F
SHELDON *      SUNNY     73  45  35 E8        30.08F
SIOUX CITY     PTSUNNY   71  51  49 S5        30.09F
6HR MIN TEMP:  50; 6HR MAX TEMP:  71;

SPENCER        SUNNY     74  45  35 CALM      30.09F
6HR MIN TEMP:  47; 6HR MAX TEMP:  75;

STORM LAKE *   SUNNY     72  46  40 VRB7      30.10S
$$

IAZ055>058-069>071-079>083-090>094-171900-
   SOUTHWEST IOWA

CITY           SKY/WX    TMP DP  RH WIND       PRES   REMARKS
ATLANTIC *     SUNNY     75  54  46 SE9       30.06F
AUDUBON *      SUNNY     75  50  41 E5        30.08F
CLARINDA *     PTSUNNY   75  54  46 SE9       30.07F
COUNCIL BLFS * MOSUNNY   73  54  49 E7G15     30.07S
CRESTON *      MOSUNNY   72  54  53 VRB6      30.07F
HARLAN  *      SUNNY     75  52  43 E8G17     30.10F
LAMONI         CLOUDY    76  54  46 VRB7      30.06F
6HR MIN TEMP:  53; 6HR MAX TEMP:  76;

RED OAK *      PTSUNNY   73  54  49 VRB5      30.06F
SHENANDOAH *   PTSUNNY   73  55  53 SE8G15    30.06F
$$

IAZ047>049-059>061-072>074-084-171900-
   CENTRAL IOWA

CITY           SKY/WX    TMP DP  RH WIND       PRES   REMARKS
AMES           SUNNY     73  49  42 N3        30.06F
6HR MIN TEMP:  47; 6HR MAX TEMP:  76;

ANKENY *       PTSUNNY   77  52  41 SE8       30.06F
CHARITON *     MOSUNNY   73  54  49 SE6       30.07F
DES MOINES     MOSUNNY   76  49  38 VRB5      30.07F
6HR MIN TEMP:  53; 6HR MAX TEMP:  77;

GRINNELL*      PTSUNNY   73  48  40 CALM      30.07F
KNOXVILLE *    MOSUNNY   73  54  49 CALM      30.06F
MARSHALLTOWN   MOSUNNY   74  49  41 CALM      30.05F
6HR MIN TEMP:  49; 6HR MAX TEMP:  75;

PELLA *        MOSUNNY   76  56  50 CALM      30.08F
PERRY *          N/A     73  48  40 CALM      30.07F
$$

IAZ004>006-015-016-023>025-035-036-171900-
   NORTH CENTRAL IOWA

CITY           SKY/WX    TMP DP  RH WIND       PRES   REMARKS
ALGONA *       SUNNY     73  45  35 NW7       30.08F
CLARION *      MOSUNNY   75  46  35 VRB5      30.07F
ESTHERVILLE    SUNNY     72  45  37 N7        30.08F
6HR MIN TEMP:  44; 6HR MAX TEMP:  72;

FORT DODGE *   MOSUNNY   73  48  40 S3        30.08F
MASON CITY     SUNNY     75  45  34 VRB6      30.08F
6HR MIN TEMP:  47; 6HR MAX TEMP:  75;

FOREST CITY *  SUNNY     72  43  35 NE5       30.08F
IOWA FALLS *     N/A     75  46  35 N6        30.07F
$$

IAZ007>011-017>019-026>030-037>042-050>054-066-171900-
   NORTHEAST IOWA

CITY           SKY/WX    TMP DP  RH WIND       PRES   REMARKS
CEDAR RAPIDS   MOSUNNY   75  49  39 CALM      30.04F
6HR MIN TEMP:  49; 6HR MAX TEMP:  76;

CHARLES CITY * SUNNY     73  46  38 VRB3G12   30.07F
CLINTON *      MOSUNNY   73  48  40 W3        30.07F
DECORAH *      SUNNY     73  46  38 NW8G14    30.05F
DUBUQUE        MOSUNNY   74  47  38 SW6       30.06F
6HR MIN TEMP:  49; 6HR MAX TEMP:  76;

MONTICELLO *   MOSUNNY   75  48  38 NW5       30.05F
OELWEIN *      MOSUNNY   75  48  38 CALM      30.06F
WATERLOO       SUNNY     75  48  38 S5        30.05F
6HR MIN TEMP:  47; 6HR MAX TEMP:  77;

$$

IAZ064-065-067-068-078-171900-
   EAST CENTRAL IOWA

CITY           SKY/WX    TMP DP  RH WIND       PRES   REMARKS
DAVENPORT      MOSUNNY   76  48  37 VRB5      30.06F
6HR MIN TEMP:  50; 6HR MAX TEMP:  77;

IOWA CITY      MOSUNNY   74  51  44 W5        30.06F
6HR MIN TEMP:  48; 6HR MAX TEMP:  76;

MT. PLEASANT * MOSUNNY   75  48  39 SW3       30.06F
MUSCATINE *    PTSUNNY   77  48  36 CALM      30.06F
QUAD CITIES    SUNNY     78  47  33 VRB3      30.05F
6HR MIN TEMP:  46; 6HR MAX TEMP:  79;

$$

IAZ062-063-075>077-085>089-095>099-171900-
   SOUTHEAST IOWA

CITY           SKY/WX    TMP DP  RH WIND       PRES   REMARKS
BURLINGTON     PTSUNNY   76  52  43 CALM      30.05F
6HR MIN TEMP:  54; 6HR MAX TEMP:  78;

FAIRFIELD *    PTSUNNY   75  52  43 E7        30.06F
FORT MADISON * MOSUNNY   77  52  41 S3        30.07F
KEOKUK *       PTSUNNY   77  55  47 CALM      30.05F
OSKALOOSA *    PTSUNNY   73  50  43 CALM      30.07F
CENTERVILLE *  SUNNY     73  54  49 NE5       30.08F
OTTUMWA        PTSUNNY   76  51  41 VRB5      30.06F
6HR MIN TEMP:  52; 6HR MAX TEMP:  76;

WASHINGTON *   SUNNY     75  52  43 CALM      30.06F
$$

ABBREVIATIONS USED IN REMARKS
   TC - TEMPERATURES IN CELSIUS
  WCI - WIND CHILL INDEX
   HX - HEAT INDEX
  VSB - VISIBILITY
$$



USA.gov is the U.S. government's official web portal to all federal, state and local government web resources and services.